When you browse on this site, cookies collect data to enhance your experience and personalize the content and advertising you see.
Visit our Privacy Policy to learn more. By continuing to use the site, you agree to this use of cookies and data.
  • In Hungary
  • List of Countries
  • For 7 days
  • Water Temperature
  • Weather Map
  • News
  • Weather Widgets
  • user-avatar
    Login

    Hourly Weather Mizyakivs'ki Khutory

    Today, 19 August, Monday

    Time Temperature Precipitation Wind Pressure Humidity
    00:00 +18°C° 0 mm 1 mps 737 mmHg 66%
    01:00 +18°C° 0 mm 1 mps 737 mmHg 67%
    02:00 +17°C° 0 mm 2 mps 737 mmHg 67%
    03:00 +16°C° 0 mm 2 mps 737 mmHg 68%
    04:00 +16°C° 0 mm 2 mps 738 mmHg 68%
    05:00 +16°C° 0 mm 2 mps 738 mmHg 69%
    06:00 +18°C° 0 mm 2 mps 738 mmHg 65%
    07:00 +20°C° 0 mm 2 mps 738 mmHg 61%
    08:00 +21°C° 0 mm 2 mps 739 mmHg 57%
    09:00 +24°C° 0 mm 2 mps 739 mmHg 53%
    10:00 +26°C° 0 mm 2 mps 739 mmHg 49%
    11:00 +27°C° 0 mm 2 mps 739 mmHg 45%
    12:00 +28°C° 0 mm 2 mps 739 mmHg 43%
    13:00 +29°C° 0 mm 2 mps 739 mmHg 42%
    14:00 +29°C° 0 mm 2 mps 739 mmHg 40%
    15:00 +29°C° 0 mm 1 mps 739 mmHg 41%
    16:00 +29°C° 0 mm 1 mps 739 mmHg 43%
    17:00 +29°C° 0 mm 1 mps 739 mmHg 44%
    18:00 +27°C° 0 mm 1 mps 739 mmHg 49%
    19:00 +25°C° 0 mm 1 mps 739 mmHg 54%
    20:00 +23°C° 0 mm 1 mps 739 mmHg 58%
    21:00 +21°C° 0 mm 2 mps 739 mmHg 59%
    22:00 +21°C° 0 mm 2 mps 739 mmHg 59%
    23:00 +20°C° 0 mm 2 mps 739 mmHg 60%

    Tomorrow, 20 August, Tuesday

    Time Temperature Precipitation Wind Pressure Humidity
    00:00 +20°C° 0 mm 2 mps 739 mmHg 59%
    01:00 +19°C° 0 mm 2 mps 739 mmHg 58%
    02:00 +19°C° 0 mm 2 mps 739 mmHg 57%
    03:00 +18°C° 0 mm 2 mps 740 mmHg 57%
    04:00 +18°C° 0 mm 2 mps 740 mmHg 57%
    05:00 +18°C° 0 mm 2 mps 740 mmHg 57%
    06:00 +19°C° 0 mm 2 mps 740 mmHg 54%
    07:00 +21°C° 0 mm 2 mps 740 mmHg 52%
    08:00 +24°C° 0 mm 2 mps 741 mmHg 50%
    09:00 +26°C° 0 mm 2 mps 741 mmHg 45%
    10:00 +28°C° 0 mm 2 mps 741 mmHg 41%
    11:00 +30°C° 0 mm 2 mps 741 mmHg 37%
    12:00 +30°C° 0 mm 1 mps 741 mmHg 36%
    13:00 +31°C° 0 mm 1 mps 741 mmHg 35%
    14:00 +32°C° 0 mm 1 mps 741 mmHg 34%
    15:00 +31°C° 0 mm 1 mps 741 mmHg 35%
    16:00 +31°C° 0 mm 1 mps 741 mmHg 37%
    17:00 +31°C° 0 mm 1 mps 741 mmHg 38%
    18:00 +29°C° 0 mm 1 mps 741 mmHg 43%
    19:00 +27°C° 0 mm 1 mps 741 mmHg 48%
    20:00 +24°C° 0 mm 1 mps 741 mmHg 54%
    21:00 +24°C° 0 mm 2 mps 741 mmHg 54%
    22:00 +23°C° 0 mm 2 mps 741 mmHg 55%
    23:00 +21°C° 0 mm 2 mps 741 mmHg 56%

    Day after tomorrow, 21 August, Wednesday

    Time Temperature Precipitation Wind Pressure Humidity
    00:00 +21°C° 0 mm 2 mps 741 mmHg 57%
    01:00 +20°C° 0 mm 2 mps 741 mmHg 57%
    02:00 +20°C° 0 mm 2 mps 741 mmHg 57%
    03:00 +19°C° 0 mm 2 mps 741 mmHg 59%
    04:00 +20°C° 0 mm 1 mps 740 mmHg 61%
    05:00 +20°C° 0 mm 1 mps 740 mmHg 62%
    06:00 +21°C° 0 mm 1 mps 740 mmHg 60%
    07:00 +23°C° 0 mm 2 mps 741 mmHg 57%
    08:00 +25°C° 0 mm 2 mps 741 mmHg 54%
    09:00 +26°C° 0 mm 2 mps 741 mmHg 50%
    10:00 +28°C° 0 mm 2 mps 741 mmHg 45%
    11:00 +29°C° 0 mm 2 mps 741 mmHg 41%
    12:00 +30°C° 0 mm 2 mps 741 mmHg 39%
    13:00 +31°C° 0 mm 2 mps 740 mmHg 37%
    14:00 +31°C° 0 mm 2 mps 740 mmHg 34%
    15:00 +31°C° 0 mm 2 mps 740 mmHg 37%
    16:00 +30°C° 0 mm 2 mps 740 mmHg 39%
    17:00 +30°C° 0 mm 2 mps 740 mmHg 41%
    18:00 +28°C° 0 mm 2 mps 740 mmHg 46%
    19:00 +26°C° 0 mm 2 mps 740 mmHg 51%
    20:00 +24°C° 0 mm 2 mps 740 mmHg 56%
    21:00 +23°C° 0 mm 2 mps 740 mmHg 59%
    22:00 +23°C° 0 mm 2 mps 740 mmHg 62%
    23:00 +22°C° 0 mm 1 mps 740 mmHg 65%

    22 August, Thursday

    Time Temperature Precipitation Wind Pressure Humidity
    00:00 +22°C° 0 mm 1 mps 740 mmHg 67%
    01:00 +21°C° 0 mm 1 mps 740 mmHg 68%
    02:00 +21°C° 0 mm 1 mps 740 mmHg 69%
    03:00 +20°C° 0 mm 1 mps 740 mmHg 69%
    04:00 +19°C° 0 mm 2 mps 739 mmHg 69%
    05:00 +19°C° 0 mm 2 mps 739 mmHg 69%
    06:00 +20°C° 0 mm 2 mps 740 mmHg 67%
    07:00 +23°C° 0 mm 2 mps 740 mmHg 64%
    08:00 +24°C° 0 mm 3 mps 740 mmHg 62%
    09:00 +26°C° 0 mm 3 mps 741 mmHg 60%
    10:00 +27°C° 0 mm 3 mps 741 mmHg 57%
    11:00 +28°C° 0 mm 4 mps 741 mmHg 55%
    12:00 +28°C° 0 mm 4 mps 741 mmHg 56%
    13:00 +28°C° 0 mm 4 mps 741 mmHg 58%
    14:00 +28°C° 0 mm 4 mps 741 mmHg 60%
    15:00 +28°C° 0 mm 4 mps 740 mmHg 64%
    16:00 +27°C° 0 mm 5 mps 740 mmHg 68%
    17:00 +26°C° 0 mm 5 mps 740 mmHg 72%
    18:00 +25°C° 0 mm 4 mps 740 mmHg 79%
    19:00 +22°C° 0 mm 4 mps 741 mmHg 85%
    20:00 +21°C° 0 mm 3 mps 741 mmHg 91%
    21:00 +20°C° 0 mm 3 mps 741 mmHg 92%
    22:00 +20°C° 0 mm 3 mps 741 mmHg 93%
    23:00 +19°C° 0 mm 3 mps 741 mmHg 94%

    23 August, Friday

    Time Temperature Precipitation Wind Pressure Humidity
    00:00 +19°C° 0 mm 3 mps 741 mmHg 95%
    01:00 +18°C° 0 mm 3 mps 741 mmHg 95%
    02:00 +18°C° 0 mm 3 mps 741 mmHg 95%
    03:00 +18°C° 0 mm 3 mps 741 mmHg 96%
    04:00 +17°C° 0 mm 3 mps 741 mmHg 97%
    05:00 +17°C° 0 mm 3 mps 741 mmHg 97%
    06:00 +18°C° 0 mm 3 mps 741 mmHg 93%
    07:00 +19°C° 0 mm 3 mps 741 mmHg 88%
    08:00 +20°C° 0 mm 4 mps 742 mmHg 83%
    09:00 +21°C° 0 mm 4 mps 742 mmHg 76%
    10:00 +23°C° 0 mm 4 mps 742 mmHg 68%
    11:00 +26°C° 0 mm 4 mps 742 mmHg 61%
    12:00 +27°C° 0 mm 4 mps 742 mmHg 59%
    13:00 +27°C° 0 mm 4 mps 742 mmHg 56%
    14:00 +28°C° 0 mm 4 mps 742 mmHg 54%
    15:00 +28°C° 0 mm 4 mps 742 mmHg 56%
    16:00 +27°C° 0 mm 4 mps 742 mmHg 58%
    17:00 +27°C° 0 mm 4 mps 741 mmHg 61%
    18:00 +25°C° 0 mm 4 mps 742 mmHg 67%
    19:00 +22°C° 0 mm 3 mps 742 mmHg 74%
    20:00 +20°C° 0 mm 3 mps 742 mmHg 80%
    21:00 +20°C° 0 mm 3 mps 742 mmHg 82%
    22:00 +19°C° 0 mm 3 mps 742 mmHg 83%
    23:00 +19°C° 0 mm 3 mps 742 mmHg 85%

    24 August, Saturday

    Time Temperature Precipitation Wind Pressure Humidity
    00:00 +18°C° 0 mm 3 mps 742 mmHg 87%
    01:00 +17°C° 0 mm 3 mps 742 mmHg 90%
    02:00 +17°C° 0 mm 3 mps 743 mmHg 92%
    03:00 +16°C° 0 mm 3 mps 742 mmHg 93%
    04:00 +16°C° 0 mm 3 mps 742 mmHg 94%
    05:00 +16°C° 0 mm 3 mps 742 mmHg 95%
    06:00 +17°C° 0 mm 3 mps 743 mmHg 88%
    07:00 +19°C° 0 mm 4 mps 743 mmHg 81%
    08:00 +20°C° 0 mm 4 mps 743 mmHg 74%
    09:00 +22°C° 0 mm 4 mps 743 mmHg 67%
    10:00 +23°C° 0 mm 4 mps 743 mmHg 60%
    11:00 +26°C° 0 mm 4 mps 744 mmHg 53%
    12:00 +26°C° 0 mm 4 mps 743 mmHg 49%
    13:00 +27°C° 0 mm 4 mps 743 mmHg 45%
    14:00 +28°C° 0 mm 4 mps 743 mmHg 41%
    15:00 +28°C° 0 mm 4 mps 743 mmHg 42%
    16:00 +27°C° 0 mm 4 mps 742 mmHg 44%
    17:00 +27°C° 0 mm 4 mps 742 mmHg 45%
    18:00 +25°C° 0 mm 4 mps 742 mmHg 51%
    19:00 +22°C° 0 mm 4 mps 742 mmHg 57%
    20:00 +20°C° 0 mm 3 mps 742 mmHg 62%
    21:00 +19°C° 0 mm 3 mps 742 mmHg 64%
    22:00 +18°C° 0 mm 3 mps 742 mmHg 65%
    23:00 +18°C° 0 mm 3 mps 742 mmHg 66%
    Show more